Location: Brunembert
(50.7122°N, 1.8935°E)
Time: 10:18:46
(UTC+00:00)

Cosmos 2266 Rocket - Pass Details

Date: 22 April 2021
Orbit: 935 x 1007 km, 82.9° (Epoch: 05 May)

Event Time Altitude Azimuth Distance (km) Brightness Sun altitude
Rises 19:47:36 0° 352° (N) 3,743 7.7 -7.7°
Reaches altitude 10° 19:50:17 10° 359° (N) 2,783 6.9 -8.1°
Maximum altitude 19:56:25 47° 72° (ENE) 1,291 4.4 -8.9°
Drops below altitude 10° 20:02:26 10° 146° (SE) 2,723 5.8 -9.7°
Enters shadow 20:02:36 - 146° (SSE) 2,782 5.8 -9.7°
